FTU999 ZYTL-ZYTL

Flight info

Callsign FTU999
Flight time 0h 37m
Altitude 6900
Route LOCAL
Aircraft C208/L-SDFGR/C

Departure

Time 2026-05-07 12:50
Airport Dalian Zhoushuizi International Airport (ZYTL)

Arrival

Time 2026-05-07 13:27
Airport Dalian Zhoushuizi International Airport (ZYTL)
Time Latitude Longitude Altitude Speed Heading
2026-05-07 12:47 38.96439 121.55585 75 ft 0 kts 276°
2026-05-07 12:49 38.96439 121.55584 75 ft 4 kts 274°
2026-05-07 12:49 38.96472 121.55147 105 ft 87 kts 275°
2026-05-07 12:49 38.96554 121.54204 244 ft 119 kts 276°
2026-05-07 12:50 38.96650 121.53159 716 ft 115 kts 276°
2026-05-07 12:50 38.96725 121.52117 1101 ft 122 kts 277°
2026-05-07 12:50 38.96718 121.50911 1047 ft 149 kts 269°
2026-05-07 12:50 38.96724 121.49595 1266 ft 146 kts 275°
2026-05-07 12:51 38.96740 121.48293 1488 ft 146 kts 275°
2026-05-07 12:51 38.96738 121.46993 1715 ft 145 kts 275°
2026-05-07 12:51 38.96730 121.45703 1947 ft 145 kts 275°
2026-05-07 12:51 38.96712 121.44367 2002 ft 155 kts 275°
2026-05-07 12:52 38.96702 121.42955 2003 ft 161 kts 275°
2026-05-07 12:52 38.96697 121.41507 2006 ft 162 kts 275°
2026-05-07 12:52 38.96697 121.40069 2003 ft 162 kts 275°
2026-05-07 12:52 38.96695 121.38616 2002 ft 164 kts 275°
2026-05-07 12:53 38.96703 121.37144 2000 ft 165 kts 275°
2026-05-07 12:53 38.96941 121.35752 1992 ft 159 kts 307°
2026-05-07 12:53 38.97859 121.35058 1996 ft 158 kts 353°
2026-05-07 12:53 38.98945 121.35195 2005 ft 156 kts
2026-05-07 12:54 39.00020 121.35371 2001 ft 155 kts
2026-05-07 12:54 39.01087 121.35554 2001 ft 154 kts
2026-05-07 12:54 39.02146 121.35735 2000 ft 154 kts
2026-05-07 12:54 39.03206 121.35926 2000 ft 154 kts
2026-05-07 12:55 39.04275 121.36114 2002 ft 156 kts
2026-05-07 12:55 39.05353 121.36299 1997 ft 156 kts
2026-05-07 12:55 39.06426 121.36477 1998 ft 156 kts
2026-05-07 12:55 39.07500 121.36653 2001 ft 156 kts
2026-05-07 12:56 39.08567 121.36882 1997 ft 157 kts 17°
2026-05-07 12:56 39.09336 121.37880 1990 ft 168 kts 64°
2026-05-07 12:56 39.09363 121.39408 1999 ft 175 kts 95°
2026-05-07 12:56 39.09175 121.40961 2001 ft 176 kts 94°
2026-05-07 12:57 39.08979 121.42515 2000 ft 176 kts 95°
2026-05-07 12:57 39.08782 121.44091 2002 ft 176 kts 95°
2026-05-07 12:57 39.08657 121.45126 2001 ft 177 kts 95°
2026-05-07 12:57 39.08394 121.47217 1997 ft 177 kts 95°
2026-05-07 12:58 39.08262 121.48254 2000 ft 177 kts 95°
2026-05-07 12:58 39.08063 121.49822 2001 ft 178 kts 95°
2026-05-07 12:58 39.07862 121.51388 2002 ft 177 kts 95°
2026-05-07 12:58 39.07656 121.52953 2002 ft 178 kts 95°
2026-05-07 12:59 39.07451 121.54522 2002 ft 177 kts 95°
2026-05-07 12:59 39.07252 121.56089 2003 ft 177 kts 95°
2026-05-07 12:59 39.07051 121.57653 2001 ft 177 kts 95°
2026-05-07 12:59 39.06849 121.59218 2001 ft 178 kts 94°
2026-05-07 13:00 39.06638 121.60797 1997 ft 180 kts 95°
2026-05-07 13:00 39.06424 121.62390 1999 ft 181 kts 95°
2026-05-07 13:00 39.06212 121.63978 2001 ft 179 kts 95°
2026-05-07 13:00 39.06012 121.65567 1996 ft 180 kts 95°
2026-05-07 13:01 39.05803 121.67154 2001 ft 180 kts 95°
2026-05-07 13:01 39.05584 121.68736 1993 ft 178 kts 95°
2026-05-07 13:01 39.05367 121.70306 1992 ft 179 kts 95°
2026-05-07 13:01 39.05156 121.71888 1991 ft 180 kts 94°
2026-05-07 13:02 39.04935 121.73483 1992 ft 182 kts 95°
2026-05-07 13:02 39.04709 121.75082 1997 ft 181 kts 95°
2026-05-07 13:02 39.04483 121.76676 1996 ft 182 kts 95°
2026-05-07 13:02 39.04258 121.78282 2000 ft 183 kts 95°
2026-05-07 13:03 39.04042 121.79897 1987 ft 183 kts 95°
2026-05-07 13:03 39.03516 121.81382 1979 ft 190 kts 132°
2026-05-07 13:03 39.02332 121.82082 1980 ft 190 kts 178°
2026-05-07 13:03 39.01016 121.82071 1994 ft 189 kts 185°
2026-05-07 13:04 38.99699 121.82056 1994 ft 188 kts 184°
2026-05-07 13:04 38.98404 121.82038 1982 ft 185 kts 186°
2026-05-07 13:04 38.97124 121.82025 1979 ft 183 kts 184°
2026-05-07 13:04 38.95851 121.81999 1980 ft 183 kts 185°
2026-05-07 13:05 38.94589 121.81884 1976 ft 179 kts 201°
2026-05-07 13:05 38.93673 121.80955 1978 ft 164 kts 250°
2026-05-07 13:05 38.93483 121.79589 1992 ft 154 kts 275°
2026-05-07 13:05 38.93461 121.78218 1999 ft 153 kts 279°
2026-05-07 13:06 38.93547 121.76857 2000 ft 153 kts 282°
2026-05-07 13:06 38.93697 121.75506 1997 ft 152 kts 287°
2026-05-07 13:06 38.93907 121.74171 1997 ft 153 kts 287°
2026-05-07 13:06 38.94122 121.72839 1997 ft 152 kts 288°
2026-05-07 13:07 38.94410 121.71539 2001 ft 152 kts 291°
2026-05-07 13:07 38.94683 121.70227 2002 ft 152 kts 290°
2026-05-07 13:07 38.94947 121.68909 2000 ft 153 kts 290°
2026-05-07 13:07 38.95203 121.67588 2003 ft 152 kts 290°
2026-05-07 13:08 38.95462 121.66271 2003 ft 152 kts 289°
2026-05-07 13:08 38.95695 121.65048 2034 ft 109 kts 287°
2026-05-07 13:08 38.95710 121.64211 1977 ft 87 kts 277°
2026-05-07 13:08 38.95715 121.63605 1978 ft 76 kts 283°
2026-05-07 13:09 38.95746 121.62988 1845 ft 91 kts 282°
2026-05-07 13:09 38.95798 121.62266 1655 ft 79 kts 285°
2026-05-07 13:09 38.95855 121.61579 1476 ft 73 kts 286°
2026-05-07 13:09 38.95933 121.60919 1284 ft 78 kts 286°
2026-05-07 13:10 38.96043 121.60221 1090 ft 84 kts 284°
2026-05-07 13:10 38.96128 121.59464 969 ft 84 kts 279°
2026-05-07 13:10 38.96196 121.58763 771 ft 75 kts 279°
2026-05-07 13:10 38.96250 121.58098 631 ft 73 kts 278°
2026-05-07 13:11 38.96301 121.57428 554 ft 72 kts 278°
2026-05-07 13:11 38.96354 121.56791 438 ft 73 kts 277°
2026-05-07 13:11 38.96400 121.56133 266 ft 74 kts 275°
2026-05-07 13:11 38.96443 121.55515 121 ft 62 kts 275°
2026-05-07 13:12 38.96480 121.55045 105 ft 55 kts 271°
2026-05-07 13:12 38.96536 121.54279 195 ft 106 kts 275°
2026-05-07 13:12 38.96636 121.53238 476 ft 124 kts 281°
2026-05-07 13:12 38.96812 121.52152 928 ft 124 kts 282°
2026-05-07 13:13 38.96966 121.51052 1330 ft 126 kts 285°
2026-05-07 13:13 38.97173 121.49933 1658 ft 131 kts 288°
2026-05-07 13:13 38.97375 121.48790 1994 ft 131 kts 288°
2026-05-07 13:13 38.97574 121.47670 2394 ft 125 kts 299°
2026-05-07 13:14 38.98173 121.46825 2492 ft 137 kts 334°
2026-05-07 13:14 38.99156 121.46624 2368 ft 153 kts
2026-05-07 13:14 39.00211 121.46913 2397 ft 154 kts 11°
2026-05-07 13:14 39.01200 121.47461 2411 ft 160 kts 27°
2026-05-07 13:15 39.02136 121.48276 2321 ft 165 kts 30°
2026-05-07 13:15 39.03120 121.49070 2208 ft 168 kts 26°
2026-05-07 13:15 39.04114 121.49848 2086 ft 167 kts 31°
2026-05-07 13:15 39.04739 121.51112 1999 ft 177 kts 75°
2026-05-07 13:16 39.04626 121.52694 2002 ft 177 kts 96°
2026-05-07 13:16 39.04431 121.54256 1997 ft 177 kts 94°
2026-05-07 13:16 39.04240 121.55804 1997 ft 175 kts 95°
2026-05-07 13:16 39.04043 121.57347 2000 ft 175 kts 94°
2026-05-07 13:17 39.03836 121.58894 1999 ft 176 kts 95°
2026-05-07 13:17 39.03624 121.60447 1993 ft 175 kts 96°
2026-05-07 13:17 39.03430 121.61989 1991 ft 175 kts 95°
2026-05-07 13:17 39.03234 121.63532 1992 ft 175 kts 94°
2026-05-07 13:18 39.03025 121.65070 1993 ft 174 kts 95°
2026-05-07 13:18 39.02812 121.66603 1994 ft 174 kts 95°
2026-05-07 13:18 39.02599 121.68136 1989 ft 174 kts 95°
2026-05-07 13:18 39.02394 121.69675 1987 ft 175 kts 94°
2026-05-07 13:19 39.02181 121.71219 1992 ft 176 kts 95°
2026-05-07 13:19 39.01964 121.72763 1992 ft 175 kts 95°
2026-05-07 13:19 39.01747 121.74310 1994 ft 176 kts 95°
2026-05-07 13:19 39.01539 121.75863 1993 ft 177 kts 95°
2026-05-07 13:20 39.01327 121.77418 1993 ft 176 kts 94°
2026-05-07 13:20 39.00917 121.78904 1983 ft 183 kts 124°
2026-05-07 13:20 38.99833 121.79729 1982 ft 185 kts 173°
2026-05-07 13:20 38.98564 121.79752 1989 ft 182 kts 185°
2026-05-07 13:21 38.97299 121.79715 1992 ft 181 kts 189°
2026-05-07 13:21 38.96233 121.79040 1980 ft 168 kts 237°
2026-05-07 13:21 38.95882 121.77716 1989 ft 154 kts 274°
2026-05-07 13:21 38.95837 121.76335 2000 ft 156 kts 274°
2026-05-07 13:22 38.95688 121.74944 1995 ft 160 kts 262°
2026-05-07 13:22 38.95387 121.73561 1998 ft 161 kts 262°
2026-05-07 13:22 38.95127 121.72173 2001 ft 158 kts 270°
2026-05-07 13:22 38.95086 121.70778 2000 ft 156 kts 275°
2026-05-07 13:23 38.95062 121.69383 2001 ft 156 kts 275°
2026-05-07 13:23 38.95073 121.68039 2010 ft 139 kts 278°
2026-05-07 13:23 38.95085 121.66879 1988 ft 123 kts 281°
2026-05-07 13:23 38.95193 121.65958 1989 ft 95 kts 289°
2026-05-07 13:24 38.95310 121.65121 1867 ft 95 kts 287°
2026-05-07 13:24 38.95424 121.64328 1727 ft 82 kts 289°
2026-05-07 13:24 38.95546 121.63577 1590 ft 87 kts 289°
2026-05-07 13:24 38.95687 121.62806 1462 ft 90 kts 289°
2026-05-07 13:25 38.95822 121.62008 1305 ft 93 kts 286°
2026-05-07 13:25 38.95929 121.61201 1166 ft 89 kts 284°
2026-05-07 13:25 38.96018 121.60441 1035 ft 84 kts 282°
2026-05-07 13:25 38.96093 121.59706 925 ft 82 kts 279°
2026-05-07 13:26 38.96159 121.59002 786 ft 80 kts 278°
2026-05-07 13:26 38.96231 121.58288 660 ft 77 kts 278°
2026-05-07 13:26 38.96280 121.57631 558 ft 74 kts 277°
2026-05-07 13:26 38.96325 121.56995 464 ft 69 kts 276°
2026-05-07 13:27 38.96383 121.56371 331 ft 71 kts 275°
2026-05-07 13:27 38.96422 121.55767 174 ft 65 kts 276°
2026-05-07 13:27 38.96464 121.55251 105 ft 49 kts 275°
2026-05-07 13:27 38.96505 121.54696 116 ft 91 kts 275°
2026-05-07 13:28 38.96568 121.53735 300 ft 119 kts 276°
2026-05-07 13:28 38.96663 121.52611 498 ft 138 kts 276°
2026-05-07 13:28 38.96775 121.51334 619 ft 148 kts 276°
2026-05-07 13:28 38.96895 121.50005 752 ft 152 kts 277°
2026-05-07 13:29 38.97016 121.48648 885 ft 153 kts 277°
2026-05-07 13:29 38.97126 121.47281 1024 ft 154 kts 276°
2026-05-07 13:29 38.97240 121.45909 1160 ft 155 kts 277°
2026-05-07 13:29 38.97330 121.44521 1287 ft 156 kts 277°
2026-05-07 13:30 38.97402 121.43140 1407 ft 155 kts 277°
2026-05-07 13:30 38.97460 121.41768 1536 ft 154 kts 277°
2026-05-07 13:30 38.97517 121.40387 1660 ft 155 kts 277°
2026-05-07 13:30 38.97570 121.39002 1787 ft 154 kts 278°
2026-05-07 13:31 38.98027 121.37832 1910 ft 149 kts 323°
2026-05-07 13:31 38.99021 121.37558 1991 ft 153 kts
2026-05-07 13:31 39.00091 121.37736 2003 ft 157 kts
2026-05-07 13:31 39.01185 121.37908 2003 ft 159 kts
2026-05-07 13:32 39.02286 121.38089 2002 ft 160 kts
2026-05-07 13:32 39.03399 121.38273 2002 ft 162 kts
2026-05-07 13:32 39.04512 121.38461 2001 ft 161 kts
2026-05-07 13:32 39.05622 121.38637 2000 ft 160 kts
2026-05-07 13:33 39.06725 121.38818 2001 ft 160 kts
2026-05-07 13:33 39.07795 121.39173 1997 ft 164 kts 28°
2026-05-07 13:33 39.08420 121.40412 1990 ft 176 kts 75°
2026-05-07 13:33 39.08325 121.42003 2002 ft 180 kts 95°
2026-05-07 13:34 39.08144 121.43600 2002 ft 181 kts 94°
2026-05-07 13:34 39.07753 121.46814 2003 ft 182 kts 95°
2026-05-07 13:34 39.07551 121.48429 2002 ft 183 kts 95°
2026-05-07 13:35 39.07347 121.50050 2005 ft 184 kts 95°
2026-05-07 13:35 39.07140 121.51676 2004 ft 184 kts 95°
2026-05-07 13:35 39.07002 121.52750 2003 ft 184 kts 95°
2026-05-07 13:35 39.06789 121.54368 2002 ft 183 kts 95°
2026-05-07 13:36 39.06579 121.55984 2004 ft 183 kts 95°
2026-05-07 13:36 39.06371 121.57605 2004 ft 184 kts 95°
2026-05-07 13:36 39.06160 121.59233 2006 ft 185 kts 95°
2026-05-07 13:36 39.05946 121.60870 2003 ft 186 kts 95°
2026-05-07 13:37 39.05737 121.62511 1996 ft 186 kts 95°
2026-05-07 13:37 39.05536 121.64145 1997 ft 185 kts 94°
2026-05-07 13:37 39.05325 121.65772 1993 ft 183 kts 95°
2026-05-07 13:37 39.05109 121.67383 1994 ft 182 kts 95°
2026-05-07 13:38 39.04900 121.68983 1991 ft 181 kts 95°
2026-05-07 13:38 39.04691 121.70584 1989 ft 182 kts 95°
2026-05-07 13:38 39.04473 121.72184 1992 ft 181 kts 95°
2026-05-07 13:38 39.04252 121.73781 1989 ft 181 kts 95°
2026-05-07 13:39 39.03964 121.75359 1984 ft 185 kts 112°
2026-05-07 13:39 39.03026 121.76471 1978 ft 189 kts 160°
2026-05-07 13:39 39.01739 121.76631 1987 ft 186 kts 185°
2026-05-07 13:39 39.00438 121.76586 1995 ft 188 kts 184°
2026-05-07 13:40 38.99132 121.76540 2001 ft 188 kts 185°
2026-05-07 13:40 38.97825 121.76490 1999 ft 188 kts 185°
2026-05-07 13:40 38.96513 121.76437 1999 ft 189 kts 185°
2026-05-07 13:40 38.95257 121.76121 1987 ft 182 kts 215°
2026-05-07 13:41 38.94525 121.74927 1985 ft 167 kts 262°
2026-05-07 13:41 38.94445 121.73480 1993 ft 162 kts 275°
2026-05-07 13:41 38.94403 121.72032 2002 ft 163 kts 274°
2026-05-07 13:41 38.94374 121.70583 2001 ft 162 kts 275°
2026-05-07 13:42 38.94399 121.69142 2002 ft 160 kts 280°
2026-05-07 13:42 38.94603 121.67772 1999 ft 154 kts 295°
2026-05-07 13:42 38.94975 121.66493 1994 ft 152 kts 296°
2026-05-07 13:42 38.95308 121.65314 2003 ft 134 kts 291°
2026-05-07 13:43 38.95505 121.64215 2030 ft 104 kts 289°
2026-05-07 13:43 38.95586 121.63438 1923 ft 86 kts 285°
2026-05-07 13:43 38.95677 121.62676 1736 ft 86 kts 287°
2026-05-07 13:43 38.95779 121.61918 1560 ft 83 kts 286°
2026-05-07 13:44 38.95894 121.61150 1350 ft 91 kts 287°
2026-05-07 13:44 38.96004 121.60373 1131 ft 84 kts 285°
2026-05-07 13:44 38.96105 121.59657 877 ft 81 kts 282°
2026-05-07 13:44 38.96169 121.58966 707 ft 77 kts 279°
2026-05-07 13:45 38.96225 121.58293 624 ft 74 kts 277°
2026-05-07 13:45 38.96278 121.57647 528 ft 71 kts 274°
2026-05-07 13:45 38.96326 121.57029 452 ft 69 kts 274°
2026-05-07 13:45 38.96375 121.56412 322 ft 68 kts 275°
2026-05-07 13:46 38.96416 121.55823 169 ft 65 kts 274°
2026-05-07 13:46 38.96461 121.55282 105 ft 52 kts 276°
2026-05-07 13:46 38.96483 121.54984 106 ft 8 kts 277°
2026-05-07 13:46 38.96493 121.54871 107 ft 14 kts 276°
2026-05-07 13:47 38.96502 121.54746 107 ft 11 kts 276°